Location: Unspecified
(0.0000°N, 0.0000°E)
Time: 05:02:44
(UTC+00:00)

CZ-4C DEB - Pass Details

Date: 19 March 2026
Orbit: 805 x 1381 km, 63.4° (Epoch: 15 April)

Event Time Altitude Azimuth Distance (km) Brightness Sun altitude
Rises 20:24:36 0° 291° (WNW) 4,355 ? -34.2°
Reaches altitude 10° 20:30:44 10° 257° (WSW) 3,441 ? -35.8°
Maximum altitude 20:32:34 11° 245° (WSW) 3,386 ? -36.2°
Drops below altitude 10° 20:34:24 10° 232° (SW) 3,448 ? -36.7°
Sets 20:40:41 0° 198° (SSW) 4,385 ? -38.3°
